GW4228 Weather Reports


Display with metric or nautical units.
time (UTC)temp
F
wind
direction
speed
MPH
gust
MPH
rain 1hr
in
rain 24hr
in
rain mn
in
humidity
%
barometer
mb
20260505124504 62 200 1.0 8.0 0.00 0.00 0.00 60 1009.2
20260505124004 62 157 1.0 8.0 0.00 0.00 0.00 61 1009.2
20260505123503 62 229 1.0 11.0 0.00 0.00 0.00 62 1009.2
20260505123011 61 206 1.0 11.0 0.00 0.00 0.00 63 1009.2
20260505122503 60 120 1.0 2.0 0.00 0.00 0.00 64 1009.3
20260505122006 60 134 1.0 3.0 0.00 0.00 0.00 63 1009.3
20260505121516 60 56 1.0 10.0 0.00 0.00 0.00 63 1009.3
20260505121006 60 225 1.0 10.0 0.00 0.00 0.00 63 1009.2
20260505120507 60 247 1.0 8.0 0.00 0.00 0.00 64 1009.1
20260505120048 60 159 2.0 10.0 0.00 0.00 0.00 64 1009.0
20260505115502 59 201 2.0 10.0 0.00 0.00 0.00 64 1008.9
20260505115003 59 133 1.0 4.0 0.00 0.00 0.00 65 1009.0
20260505114504 58 160 1.0 4.0 0.00 0.00 0.00 67 1009.1
20260505114004 58 145 1.0 4.0 0.00 0.00 0.00 66 1009.0
20260505113505 57 148 1.0 5.0 0.00 0.00 0.00 67 1009.1
20260505113007 57 195 0.0 5.0 0.00 0.00 0.00 68 1009.1
20260505112503 56 188 1.0 8.0 0.00 0.00 0.00 69 1009.1
20260505112003 56 170 3.0 8.0 0.00 0.00 0.00 69 1009.1
20260505111511 56 140 0.0 4.0 0.00 0.00 0.00 70 1009.1
20260505111006 55 138 1.0 4.0 0.00 0.00 0.00 71 1009.1
20260505110507 54 167 0.0 3.0 0.00 0.00 0.00 72 1009.1
20260505102006 50 155 0.0 3.0 0.00 0.00 0.00 77 1009.1
20260505101519 49 157 0.0 2.0 0.00 0.00 0.00 77 1009.0
20260505101003 49 157 0.0 2.0 0.00 0.00 0.00 77 1009.1
20260505100503 49 157 0.0 2.0 0.00 0.00 0.00 77 1009.1
20260505100021 49 157 0.0 2.0 0.00 0.00 0.00 77 1009.1
20260505095507 49 157 0.0 2.0 0.00 0.00 0.00 78 1009.1
20260505095008 49 148 0.0 2.0 0.00 0.00 0.00 78 1009.0
20260505094516 48 148 0.0 2.0 0.00 0.00 0.00 78 1009.0
20260505094008 48 148 0.0 1.0 0.00 0.00 0.00 79 1009.1
20260505093507 49 148 0.0 2.0 0.00 0.00 0.00 78 1009.0
20260505093024 49 148 0.0 2.0 0.00 0.00 0.00 77 1009.0
20260505092503 49 148 0.0 2.0 0.00 0.00 0.00 77 1008.9
20260505092001 49 148 0.0 2.0 0.00 0.00 0.00 77 1008.9
20260505091520 49 148 0.0 2.0 0.00 0.00 0.00 77 1009.0
20260505091002 49 148 0.0 2.0 0.00 0.00 0.00 77 1009.0
20260505090502 49 148 0.0 2.0 0.00 0.00 0.00 77 1008.9
20260505090026 49 148 0.0 2.0 0.00 0.00 0.00 76 1009.0
20260505085506 49 148 0.0 2.0 0.00 0.00 0.00 76 1008.9
20260505085004 49 148 0.0 2.0 0.00 0.00 0.00 76 1009.0
20260505084520 49 148 0.0 2.0 0.00 0.00 0.00 75 1009.1
20260505084008 50 148 0.0 2.0 0.00 0.00 0.00 75 1009.1
20260505083507 50 148 0.0 2.0 0.00 0.00 0.00 75 1009.2
20260505083023 50 144 0.0 2.0 0.00 0.00 0.00 74 1009.3
20260505082507 50 144 0.0 2.0 0.00 0.00 0.00 74 1009.3
20260505082007 50 144 0.0 2.0 0.00 0.00 0.00 74 1009.4
20260505081528 50 144 0.0 2.0 0.00 0.00 0.00 74 1009.3
20260505081004 50 144 0.0 2.0 0.00 0.00 0.00 73 1009.2
20260505080504 50 146 1.0 2.0 0.00 0.00 0.00 73 1009.2
20260505080008 50 124 1.0 2.0 0.00 0.00 0.00 73 1009.4
20260505075502 51 149 0.0 2.0 0.00 0.00 0.00 73 1009.3
20260505075003 51 149 0.0 2.0 0.00 0.00 0.00 72 1009.3
20260505074515 51 149 0.0 2.0 0.00 0.00 0.00 72 1009.4
20260505074004 51 138 0.0 2.0 0.00 0.00 0.00 72 1009.3
20260505073504 51 138 0.0 2.0 0.00 0.00 0.00 71 1009.4
20260505073030 51 138 0.0 2.0 0.00 0.00 0.00 71 1009.4
20260505072511 52 136 0.0 3.0 0.00 0.00 0.00 70 1009.3
20260505072009 52 138 0.0 3.0 0.00 0.00 0.00 70 1009.4
20260505071522 52 140 1.0 2.0 0.00 0.00 0.00 70 1009.3
20260505071008 52 136 1.0 2.0 0.00 0.00 0.00 69 1009.3
20260505070512 52 150 1.0 2.0 0.00 0.00 0.00 69 1009.3
20260505070024 52 147 0.0 2.0 0.00 0.00 0.00 69 1009.3
20260505065504 52 161 0.0 2.0 0.00 0.00 0.00 69 1009.3
20260505065004 52 128 0.0 2.0 0.00 0.00 0.00 68 1009.3
20260505064530 53 144 0.0 2.0 0.00 0.00 0.00 67 1009.3
20260505064005 53 136 0.0 2.0 0.00 0.00 0.00 68 1009.3
20260505063507 52 160 0.0 2.0 0.00 0.00 0.00 68 1009.3
20260505063018 53 124 0.0 3.0 0.00 0.00 0.00 67 1009.3
20260505062508 53 146 1.0 3.0 0.00 0.00 0.00 66 1009.4
20260505062011 53 148 0.0 3.0 0.00 0.00 0.00 66 1009.5
20260505061535 54 149 1.0 2.0 0.00 0.00 0.00 65 1009.4
20260505061008 54 161 1.0 2.0 0.00 0.00 0.00 64 1009.5
20260505060508 54 161 0.0 2.0 0.00 0.00 0.00 64 1009.5
20260505060023 54 180 1.0 5.0 0.00 0.00 0.00 64 1009.5
20260505055512 54 138 1.0 5.0 0.00 0.00 0.00 63 1009.5
20260505055014 54 148 1.0 4.0 0.00 0.00 0.00 63 1009.5
20260505054549 54 142 0.0 3.0 0.00 0.00 0.00 63 1009.6
20260505054013 55 192 1.0 3.0 0.00 0.00 0.00 63 1009.6
20260505053507 55 117 0.0 4.0 0.00 0.00 0.00 63 1009.6
20260505053018 55 201 0.0 4.0 0.00 0.00 0.00 62 1009.5
20260505052506 55 150 1.0 3.0 0.00 0.00 0.00 62 1009.5
20260505052006 55 126 0.0 3.0 0.00 0.00 0.00 61 1009.6
20260505051506 55 123 0.0 3.0 0.00 0.00 0.00 61 1009.6
20260505051006 55 162 1.0 3.0 0.00 0.00 0.00 61 1009.7
20260505050503 55 171 1.0 4.0 0.00 0.00 0.00 60 1009.8
20260505041520 57 180 1.0 4.0 0.00 0.00 0.00 56 1009.6
20260505041010 58 153 1.0 2.0 0.00 0.00 0.00 55 1009.5
20260505040503 57 159 1.0 2.0 0.00 0.00 0.00 55 1009.4
20260505040005 58 117 0.0 3.0 0.00 0.00 0.00 56 1009.3
20260505035504 58 159 0.0 4.0 0.00 0.00 0.00 57 1009.3
20260505035003 58 125 1.0 7.0 0.00 0.00 0.00 56 1009.3
20260505034511 59 178 1.0 7.0 0.00 0.00 0.00 53 1009.3
20260505034009 59 130 1.0 7.0 0.00 0.00 0.00 53 1009.2
20260505033504 59 144 0.0 2.0 0.00 0.00 0.00 53 1009.2
20260505033013 59 162 1.0 6.0 0.00 0.00 0.00 52 1009.2
20260505032503 59 113 2.0 6.0 0.00 0.00 0.00 52 1009.2
20260505032007 59 158 1.0 4.0 0.00 0.00 0.00 53 1009.2
20260505031537 60 141 1.0 4.0 0.00 0.00 0.00 51 1009.2
20260505031007 60 145 1.0 6.0 0.00 0.00 0.00 51 1009.2
20260505030509 60 161 0.0 6.0 0.00 0.00 0.00 51 1009.1
20260505030020 60 157 2.0 4.0 0.00 0.00 0.00 51 1009.1
20260505025509 60 167 0.0 4.0 0.00 0.00 0.00 50 1009.1
20260505025004 61 193 1.0 8.0 0.00 0.00 0.00 50 1009.0
20260505024517 61 128 2.0 8.0 0.00 0.00 0.00 50 1008.9
20260505024003 60 147 0.0 5.0 0.00 0.00 0.00 51 1008.8
20260505023504 61 167 1.0 8.0 0.00 0.00 0.00 50 1008.8
20260505023012 61 169 3.0 8.0 0.00 0.00 0.00 49 1008.8
20260505022504 61 128 1.0 6.0 0.00 0.00 0.00 50 1008.8
20260505022004 61 168 0.0 8.0 0.00 0.00 0.00 50 1008.8
20260505021519 62 157 1.0 8.0 0.00 0.00 0.00 49 1008.8
20260505021011 62 161 2.0 8.0 0.00 0.00 0.00 48 1008.7
20260505020507 62 205 2.0 6.0 0.00 0.00 0.00 48 1008.7
20260505020029 62 148 1.0 6.0 0.00 0.00 0.00 48 1008.7
20260505015508 62 232 1.0 9.0 0.00 0.00 0.00 48 1008.6
20260505015007 63 133 3.0 9.0 0.00 0.00 0.00 47 1008.6
20260505014528 63 169 2.0 11.0 0.00 0.00 0.00 48 1008.5
20260505014015 62 108 3.0 11.0 0.00 0.00 0.00 48 1008.5
20260505013504 62 171 1.0 11.0 0.00 0.00 0.00 48 1008.4
20260505013006 61 146 1.0 11.0 0.00 0.00 0.00 48 1008.3
20260505012505 60 342 2.0 9.0 0.00 0.00 0.00 49 1008.2
20260505012006 59 167 1.0 6.0 0.00 0.00 0.00 53 1008.2
20260505011523 59 145 1.0 2.0 0.00 0.00 0.00 54 1008.0
20260505011005 58 146 1.0 2.0 0.00 0.00 0.00 54 1007.9
20260505010508 57 135 0.0 2.0 0.00 0.00 0.00 57 1007.7
20260505010020 58 135 0.0 2.0 0.00 0.00 0.00 57 1007.5
20260505005507 58 135 0.0 2.0 0.00 0.00 0.00 55 1007.5
20260505005007 59 135 0.0 2.0 0.00 0.00 0.00 55 1007.5
20260505004542 59 135 0.0 2.0 0.00 0.00 0.00 56 1007.5
20260505004008 59 135 0.0 2.0 0.00 0.00 0.00 53 1007.4
20260505003509 59 135 0.0 2.0 0.00 0.00 0.00 51 1007.2
20260505003027 60 135 0.0 2.0 0.00 0.00 0.00 51 1007.2
20260505002514 60 135 0.0 2.0 0.00 0.00 0.00 51 1007.0
20260505002017 60 135 0.0 2.0 0.00 0.00 0.00 53 1007.0
20260505001514 61 135 0.0 2.0 0.00 0.00 0.00 52 1006.8
20260505001010 61 135 0.0 2.0 0.00 0.00 0.00 51 1006.8
20260505000503 61 135 0.0 2.0 0.00 0.00 0.00 50 1006.7
20260505000033 62 135 0.0 2.0 0.00 0.00 0.00 47 1006.6
20260504235508 62 135 0.0 2.0 0.00 0.00 0.00 47 1006.5
20260504235006 63 135 0.0 2.0 0.00 0.00 0.00 46 1006.4
20260504234524 64 135 0.0 2.0 0.00 0.00 0.00 43 1006.4
20260504234006 65 13 0.0 2.0 0.00 0.00 0.00 41 1006.4
20260504233508 65 13 0.0 2.0 0.00 0.00 0.00 41 1006.3
20260504233026 65 13 0.0 2.0 0.00 0.00 0.00 41 1006.4
20260504232510 66 13 0.0 2.0 0.00 0.00 0.00 40 1006.4
20260504232013 67 12 0.0 2.0 0.00 0.00 0.00 36 1006.3
20260504231531 68 12 0.0 2.0 0.00 0.00 0.00 35 1006.1
20260504231007 68 24 0.0 2.0 0.00 0.00 0.00 33 1006.1
20260504230505 69 5 0.0 5.0 0.00 0.00 0.00 33 1006.0
20260504230019 68 9 0.0 7.0 0.00 0.00 0.00 34 1006.0
20260504225507 69 30 0.0 7.0 0.00 0.00 0.00 34 1005.9
20260504225010 69 120 1.0 4.0 0.00 0.00 0.00 32 1005.9
20260504224520 69 308 1.0 6.0 0.00 0.00 0.00 35 1005.8
20260504224003 69 351 0.0 10.0 0.00 0.00 0.00 32 1005.9
20260504223503 69 286 0.0 10.0 0.00 0.00 0.00 32 1005.7
20260504223006 69 63 3.0 8.0 0.00 0.00 0.00 33 1005.7
20260504222504 69 84 2.0 12.0 0.00 0.00 0.00 32 1005.6
20260504222003 69 163 1.0 12.0 0.00 0.00 0.00 32 1005.7
20260504221510 69 34 1.0 7.0 0.00 0.00 0.00 34 1005.7
20260504221005 69 294 2.0 7.0 0.00 0.00 0.00 34 1005.7
20260504220503 69 37 1.0 7.0 0.00 0.00 0.00 32 1005.8
20260504220013 70 209 1.0 7.0 0.00 0.00 0.00 32 1005.6
20260504215502 70 194 1.0 6.0 0.00 0.00 0.00 33 1005.7
20260504215008 70 189 1.0 7.0 0.00 0.00 0.00 32 1005.6
20260504214513 70 277 2.0 7.0 0.00 0.00 0.00 31 1005.5
20260504214003 70 43 1.0 8.0 0.00 0.00 0.00 32 1005.5
20260504213503 70 132 1.0 8.0 0.00 0.00 0.00 31 1005.5
20260504213003 70 168 0.0 8.0 0.00 0.00 0.00 32 1005.4
20260504212503 70 160 2.0 8.0 0.00 0.00 0.00 32 1005.6
20260504212005 70 75 2.0 8.0 0.00 0.00 0.00 32 1005.6
20260504211508 70 61 1.0 10.0 0.00 0.00 0.00 34 1005.7
20260504211001 70 314 4.0 10.0 0.00 0.00 0.00 31 1005.7
20260504210503 71 136 3.0 12.0 0.00 0.00 0.00 30 1005.8
20260504210011 71 128 3.0 12.0 0.00 0.00 0.00 31 1005.6
20260504205506 72 128 3.0 12.0 0.00 0.00 0.00 33 1005.7
20260504205006 72 132 2.0 9.0 0.00 0.00 0.00 31 1005.7
20260504204517 71 171 1.0 9.0 0.00 0.00 0.00 31 1005.6
20260504204006 72 209 2.0 9.0 0.00 0.00 0.00 30 1005.6
20260504203505 72 47 1.0 9.0 0.00 0.00 0.00 32 1005.6
20260504203017 72 319 3.0 7.0 0.00 0.00 0.00 31 1005.6
20260504202511 72 220 4.0 9.0 0.00 0.00 0.00 30 1005.6
20260504202007 72 227 3.0 11.0 0.00 0.00 0.00 30 1005.7
20260504201506 72 333 1.0 11.0 0.00 0.00 0.00 32 1005.7
20260504201004 72 218 1.0 8.0 0.00 0.00 0.00 29 1005.7
20260504200505 73 241 2.0 15.0 0.00 0.00 0.00 31 1005.7
20260504200012 73 277 1.0 15.0 0.00 0.00 0.00 32 1005.6
20260504195504 72 65 2.0 10.0 0.00 0.00 0.00 29 1005.5
20260504195006 72 342 3.0 9.0 0.00 0.00 0.00 28 1005.8
20260504194518 72 31 1.0 8.0 0.00 0.00 0.00 32 1005.6
20260504194006 71 59 2.0 14.0 0.00 0.00 0.00 30 1005.7
20260504193509 71 212 4.0 14.0 0.00 0.00 0.00 29 1005.7
20260504193018 71 230 3.0 12.0 0.00 0.00 0.00 30 1005.7
20260504192505 71 170 4.0 12.0 0.00 0.00 0.00 29 1005.7
20260504192006 71 137 4.0 12.0 0.00 0.00 0.00 30 1005.6
20260504191520 71 130 3.0 11.0 0.00 0.00 0.00 29 1005.6
20260504191008 72 172 2.0 11.0 0.00 0.00 0.00 29 1005.6
20260504190506 71 60 2.0 11.0 0.00 0.00 0.00 30 1005.6
20260504190011 72 162 3.0 8.0 0.00 0.00 0.00 31 1005.7
20260504185504 72 321 2.0 9.0 0.00 0.00 0.00 31 1005.7
20260504185004 72 274 2.0 9.0 0.00 0.00 0.00 30 1005.7
20260504184515 71 217 2.0 8.0 0.00 0.00 0.00 29 1005.8
20260504184006 70 35 2.0 10.0 0.00 0.00 0.00 35 1005.9
20260504183506 70 277 2.0 12.0 0.00 0.00 0.00 30 1005.9
20260504183020 70 229 4.0 12.0 0.00 0.00 0.00 31 1005.8
20260504182505 71 180 2.0 9.0 0.00 0.00 0.00 31 1005.8
20260504182007 71 146 4.0 14.0 0.00 0.00 0.00 32 1005.7
20260504181522 71 227 2.0 14.0 0.00 0.00 0.00 30 1005.9
20260504181007 71 350 4.0 14.0 0.00 0.00 0.00 30 1006.1
20260504180508 70 346 2.0 14.0 0.00 0.00 0.00 30 1005.9
20260504180021 71 251 2.0 9.0 0.00 0.00 0.00 31 1006.0
20260504175512 70 133 3.0 9.0 0.00 0.00 0.00 30 1006.1
20260504175005 70 264 3.0 20.0 0.00 0.00 0.00 31 1006.1
20260504174514 70 305 4.0 20.0 0.00 0.00 0.00 30 1006.1
20260504174005 70 191 5.0 19.0 0.00 0.00 0.00 30 1006.1
20260504173506 70 221 3.0 9.0 0.00 0.00 0.00 33 1006.2
20260504173019 70 55 2.0 9.0 0.00 0.00 0.00 31 1006.4
20260504172504 69 261 3.0 13.0 0.00 0.00 0.00 30 1006.2
20260504172006 69 340 4.0 13.0 0.00 0.00 0.00 34 1006.2
20260504171524 69 136 2.0 8.0 0.00 0.00 0.00 33 1006.2
20260504171008 69 328 2.0 11.0 0.00 0.00 0.00 32 1006.4
20260504170508 69 284 2.0 11.0 0.00 0.00 0.00 33 1006.4
20260504151007 65 295 2.0 10.0 0.00 0.00 0.00 40 1007.4
20260504150511 65 347 4.0 12.0 0.00 0.00 0.00 38 1007.6
20260504141005 63 296 1.0 5.0 0.00 0.00 0.00 45 1008.2
20260504140505 62 11 1.0 9.0 0.00 0.00 0.00 44 1008.2
20260504130508 55 294 1.0 9.0 0.00 0.00 0.00 50 1009.0